Regional Weather Roundup
Issued by NWS

Home | Current Version | Previous Version | Text Only | Print | Product List | Glossary Off
Versions: 1 2 3 4 5 6 7 8 9 10 11 12 13 14 15 16 17 18 19 20 21 22 23 24 25 26 27 28 29 30 31 32 33 34 35 36 37 38 39 40 41 42 43 44 45 46 47 48 49 50

000
ASUS45 KCYS 011410
RWRWY

WYOMING REGIONAL WEATHER ROUNDUP
NATIONAL WEATHER SERVICE CHEYENNE WY
800 AM MDT FRI AUG 01 2014

NOTE:  "FAIR" INDICATES FEW OR NO CLOUDS BELOW 12,000 FEET
WITH NO SIGNIFICANT WEATHER AND/OR OBSTRUCTIONS TO VISIBILITY.

WYZ001-011500-
YELLOWSTONE NATIONAL PARK

CITY           SKY/WX    TMP DP  RH WIND       PRES   REMARKS
LK YELLOWSTONE   N/A     46  41  82 CALM      30.45S
W YELLOWSTONE  NOT AVBL

$$
WYZ002>013-054>058-071-098>099-011500-
NORTHERN WYOMING

CITY           SKY/WX    TMP DP  RH WIND       PRES   REMARKS
JACKSON        SUNNY     50  43  76 CALM      30.36S
CODY           MOSUNNY   66  41  39 SW5       30.25S
GREYBULL       MOSUNNY   66  40  38 SE3       30.18R
WORLAND        SUNNY     66  48  52 SW3       30.20R
SHERIDAN       MOSUNNY   68  47  46 CALM      30.15S
BUFFALO          N/A     75  40  28 MISG      30.22R
GILLETTE       MOSUNNY   68  43  40 W12       30.16R
HULETT         FAIR      73  43  33 MISG      30.16
NEWCASTLE      FAIR      73  41  31 SE7       30.20

$$
WYZ014>020-022>026-101>103-011500-
CENTRAL WYOMING

CITY           SKY/WX    TMP DP  RH WIND       PRES   REMARKS
BIG PINEY      SUNNY     54  47  77 CALM      30.38R
PINEDALE       CLOUDY    55  41  58 MISG      30.39S
DUBOIS         FAIR      52  37  58 NW8       30.38S
LANDER         MOSUNNY   62  41  46 E3        30.26S
RIVERTON       MOSUNNY   62  45  53 NW7       30.27R
CASPER         SUNNY     64  44  48 SW6       30.26S
DOUGLAS        SUNNY     60  48  64 CALM      30.25R

$$
WYZ021-027>030-104>119-011500-
SOUTHERN WYOMING

CITY           SKY/WX    TMP DP  RH WIND       PRES   REMARKS
EVANSTON       PTSUNNY   57  42  57 E5        30.35R
KEMMERER       SUNNY     55  39  54 N12       30.37R
FORT BRIDGER   FAIR      61  44  53 CALM      30.38S
ROCK SPRINGS   SUNNY     59  39  47 E3        30.34R
DIXON          FAIR      58  39  49 SE5       30.33S
RAWLINS        SUNNY     60  42  51 E5        30.35R
SARATOGA       FAIR      54  41  62 CALM      30.37R
LARAMIE        SUNNY     51  47  86 S3        30.37R
CHEYENNE       SUNNY     60  47  61 MISG      30.31S
TORRINGTON     SUNNY     60  51  72 CALM      30.20S
PINE BLUFFS    FAIR      59  54  82 CALM      30.27S

$$



USA.gov is the U.S. government's official web portal to all federal, state and local government web resources and services.